User: anonymous   Login
Location: Newark
(42.9260°N, 89.3850°W)
Time: 13:26:39
(UTC+00:00)
Language:

STARLINK-1042 - Orbit

View from above orbital plane
View from above orbital plane
View from above satellite
View from above satellite

Ground track
Ground track

The orbit data is extracted from the following two-line orbital elements,

1 44747U 19074AL  20053.25001157 -.00014327  00000-0 -96626-3 0  9999
2 44747  53.0444  55.9376 0001729  65.3151 187.3390 15.05574983 15681
Epoch (UTC): 22 February 2020 06:00:01
Eccentricity: 0.0001729
inclination: 53.0444°
perigee height: 548 km
apogee height: 551 km
right ascension of ascending node: 55.9376°
argument of perigee: 65.3151°
revolutions per day: 15.05574983
mean anomaly at epoch: 187.3390°
orbit number at epoch: 1568

The dashed part of the orbit path shows where the satellite is in the earth's shadow,  

DLR